Simultaneous Nadir Overpasses (SNOs) Predictions

Prediction of SNOs between METOP-A and NPP Satellite Orbit:

Table of predicted SNOs for the next 14.0 days since TLE Epoch: 11/16/2014
Index Date (METOP-A) Time (METOP-A) Lat,Lon (METOP-A) SZA (METOP-A ) Date (NPP) Time (NPP) Lat,Lon (NPP) SZA (NPP ) Distance(km) Time Diff (sec)
1 11/29/2014 15:04:14 73.98, -51.34 95.43 11/29/2014 15:03:08 74.02, -54.52 95.53 97.42 66
2 11/29/2014 15:54:58 -73.90, 115.78 84.65 11/29/2014 15:53:50 -73.91, 113.06 84.58 83.84 68
3 11/29/2014 16:45:41 73.71, -77.33 95.18 11/29/2014 16:44:31 73.68, -79.08 95.19 55.08 70
4 11/29/2014 17:36:25 -73.63, 89.81 84.89 11/29/2014 17:35:14 -73.62, 88.37 84.88 45.17 71
5 11/29/2014 18:27:09 73.40,-103.40 94.89 11/29/2014 18:25:55 73.39,-103.79 94.89 12.51 74
6 11/29/2014 19:17:53 -73.32, 63.74 85.19 11/29/2014 19:16:38 -73.33, 63.65 85.17 3.16 75
7 11/29/2014 20:08:33 73.28,-129.01 94.78 11/29/2014 20:07:23 73.29,-128.96 94.81 2.47 70
8 11/29/2014 20:59:15 -73.30, 38.36 85.20 11/29/2014 20:58:07 -73.29, 38.37 85.20 1.27 68
9 11/29/2014 21:49:54 73.31,-154.28 94.83 11/29/2014 21:48:53 73.30,-154.35 94.83 2.47 61
10 11/29/2014 22:40:37 -73.28, 12.98 85.20 11/29/2014 22:39:37 -73.29, 12.98 85.18 1.79 60
11 11/29/2014 23:31:16 73.29,-179.66 94.82 11/29/2014 23:30:22 73.26,-179.63 94.79 3.25 54
12 11/30/2014 00:21:59 -73.26, -12.40 85.21 11/30/2014 00:21:06 -73.25, -12.30 85.21 3.36 53
13 11/30/2014 01:12:38 73.27, 154.96 94.81 11/30/2014 01:11:52 73.27, 154.97 94.81 0.54 46




NCC Satellite Simultaneous Nadir Overpasses (SNOs) Prediction Service
